Total_Precipitation_Accumulation
2.26 2.29 2.26 2.26 2.10 2.26 2.48 2.86 2.83 3.05 3.01 2.69 2.27 2.12 2.14 2.20 2.12 2.23 2.48 2.51 2.32 2.35 3.03 3.40 3.29 2.99 2.55 2.12 1.86 1.72 1.62 1.48 1.29 1.02 0.93 1.01 1.05 1.05 0.92 0.73 0.64 0.54 0.42
2.68 2.68 2.59 2.56 2.35 2.35 2.67 2.93 3.00 3.46 3.33 3.18 2.68 2.44 2.29 2.26 2.25 2.38 2.61 2.79 2.71 2.65 3.02 3.47 3.68 3.58 3.20 2.64 2.20 1.94 1.88 1.81 1.61 1.22 1.01 1.04 1.13 1.12 1.05 0.93 0.75 0.58 0.46
2.83 2.74 2.75 2.64 2.65 2.71 2.87 2.94 3.10 3.48 3.27 3.19 3.02 2.75 2.53 2.38 2.29 2.45 2.78 3.09 2.81 2.69 2.98 3.40 3.77 3.71 3.51 3.19 2.69 2.37 2.11 1.90 1.75 1.46 1.16 1.03 1.03 1.03 1.01 1.00 0.87 0.65 0.46
2.89 2.96 2.79 2.63 2.80 2.89 3.05 3.26 3.25 3.35 3.44 3.43 3.27 2.93 2.76 2.66 2.32 2.40 2.57 2.74 2.95 2.55 2.88 3.40 3.63 3.41 3.38 3.53 3.45 3.20 2.80 2.34 2.04 1.69 1.39 1.22 1.14 1.08 1.02 1.01 0.91 0.73 0.49
2.83 3.15 2.99 3.00 3.09 3.27 3.17 2.94 3.38 3.50 3.49 3.46 3.07 2.98 2.62 2.57 2.47 2.36 2.47 2.52 2.74 2.71 2.74 2.79 3.21 3.07 3.28 3.73 3.98 4.05 3.76 3.24 2.65 2.19 1.84 1.61 1.49 1.29 1.11 1.02 0.91 0.72 0.53
2.83 3.13 2.92 2.94 3.16 3.47 3.54 3.48 3.64 3.51 3.37 3.44 2.97 2.83 2.51 2.27 2.25 2.20 2.04 2.26 2.36 2.12 2.27 2.46 2.81 2.39 2.59 3.06 3.53 4.03 4.27 4.20 3.61 2.90 2.56 2.34 2.16 1.77 1.32 1.08 0.93 0.79 0.63
2.79 3.08 2.81 3.14 3.21 3.37 3.55 3.55 3.70 3.56 3.34 3.44 3.36 2.90 2.38 2.09 2.00 1.83 1.85 2.00 1.94 1.98 2.27 2.62 2.86 2.80 2.45 2.41 2.63 3.23 4.03 4.56 4.37 3.74 3.38 3.14 2.93 2.45 1.74 1.33 1.02 0.84 0.74
2.68 2.76 3.15 3.14 3.24 3.41 3.44 3.38 3.44 3.28 3.01 3.28 3.41 3.27 2.64 2.30 1.93 1.58 1.76 1.74 1.86 2.11 2.15 2.16 2.48 2.81 2.67 2.74 2.36 2.34 3.35 4.34 4.79 4.63 4.37 4.02 3.62 2.89 2.19 1.73 1.28 0.97 0.84
2.82 2.92 3.12 3.20 3.19 3.07 3.19 3.34 3.17 3.08 2.96 3.02 3.19 3.26 2.81 2.37 1.95 1.66 1.56 1.58 1.91 2.12 2.07 2.03 1.98 2.16 2.26 2.68 2.86 2.45 2.59 2.96 3.70 4.64 5.05 4.92 4.15 3.03 2.34 1.99 1.70 1.29 0.99
2.61 2.71 2.79 2.95 3.01 2.94 3.00 2.91 2.91 2.97 2.96 2.79 2.92 2.90 2.75 2.56 2.38 1.92 1.55 1.51 1.72 1.85 1.85 1.71 1.78 2.03 2.15 2.54 2.78 2.33 2.05 1.98 2.28 3.30 4.31 4.57 4.11 3.10 2.41 2.20 2.21 1.93 1.41
2.40 2.35 2.49 2.66 2.70 2.62 2.57 2.75 2.99 2.94 2.80 2.67 2.72 2.76 2.88 2.79 2.51 2.20 1.79 1.65 1.58 1.45 1.55 1.60 1.67 1.74 1.96 2.31 2.54 2.11 1.95 1.75 1.66 2.03 2.72 3.24 3.40 3.07 2.64 2.56 2.76 2.74 2.33
2.30 2.19 2.20 2.34 2.43 2.42 2.40 2.46 2.55 2.59 2.58 2.68 2.69 2.63 2.75 2.71 2.59 2.46 2.05 1.77 1.62 1.30 1.32 1.40 1.53 1.61 1.72 1.91 1.78 1.72 1.79 1.62 1.46 1.46 1.72 2.12 2.48 2.64 2.55 2.64 2.90 3.05 3.03
2.17 2.13 2.08 2.06 2.06 2.08 2.16 2.36 2.36 2.32 2.40 2.50 2.49 2.52 2.45 2.33 2.36 2.36 2.21 1.90 1.70 1.33 1.34 1.27 1.30 1.40 1.34 1.65 1.74 1.69 1.58 1.46 1.35 1.33 1.38 1.47 1.71 1.92 2.12 2.29 2.59 2.91 3.14
2.15 2.07 1.92 1.82 1.76 1.78 1.87 2.13 2.26 2.22 2.31 2.34 2.25 2.36 2.22 2.09 2.20 2.20 2.17 2.21 2.02 1.80 1.74 1.55 1.25 1.21 1.28 1.40 1.48 1.50 1.39 1.31 1.17 1.12 1.11 1.14 1.24 1.38 1.54 1.75 1.99 2.17 2.36
1.82 1.80 1.74 1.64 1.59 1.64 1.74 1.83 1.91 1.89 2.01 2.02 2.09 2.09 1.95 1.93 2.01 2.02 2.13 2.25 2.23 2.10 2.02 1.85 1.44 1.19 1.21 1.37 1.55 1.36 1.31 1.20 1.08 1.00 0.92 0.92 0.94 1.02 1.12 1.23 1.42 1.59 1.66
1.79 1.67 1.59 1.51 1.48 1.47 1.52 1.63 1.65 1.69 1.71 1.69 1.85 1.90 1.87 1.86 1.96 1.92 1.98 2.12 2.25 2.30 2.10 1.85 1.64 1.33 1.35 1.29 1.42 1.35 1.33 1.24 1.05 0.90 0.79 0.76 0.80 0.88 0.97 1.03 1.10 1.22 1.27
1.80 1.73 1.63 1.57 1.46 1.38 1.40 1.47 1.41 1.53 1.56 1.54 1.56 1.59 1.64 1.75 1.89 1.88 1.89 1.94 2.14 2.37 2.26 2.09 1.94 1.78 1.66 1.53 1.35 1.32 1.32 1.23 1.04 0.88 0.73 0.67 0.70 0.74 0.78 0.86 0.95 1.05 1.13
1.49 1.47 1.45 1.46 1.47 1.51 1.52 1.46 1.40 1.39 1.45 1.44 1.49 1.59 1.57 1.71 1.84 1.79 1.87 1.92 2.09 2.36 2.44 2.55 2.55 2.26 1.96 1.76 1.65 1.46 1.17 1.06 1.08 0.93 0.77 0.67 0.63 0.65 0.67 0.71 0.78 0.91 1.03
1.41 1.40 1.40 1.38 1.37 1.49 1.61 1.61 1.55 1.54 1.56 1.46 1.53 1.60 1.54 1.60 1.66 1.69 1.78 1.90 2.06 2.22 2.41 2.46 2.55 2.38 2.18 1.89 1.93 1.69 1.39 1.30 1.04 0.97 0.88 0.73 0.64 0.63 0.63 0.68 0.73 0.79 0.88
1.44 1.46 1.42 1.37 1.37 1.35 1.42 1.56 1.64 1.60 1.56 1.50 1.49 1.47 1.40 1.40 1.47 1.59 1.63 1.81 1.99 2.14 2.26 2.26 2.33 2.39 2.40 2.35 2.33 2.11 1.91 1.66 1.34 1.03 1.01 0.84 0.76 0.71 0.67 0.65 0.69 0.76 0.87
1.39 1.49 1.41 1.37 1.37 1.36 1.28 1.34 1.46 1.45 1.46 1.41 1.38 1.26 1.11 1.13 1.20 1.29 1.32 1.61 1.84 1.96 2.07 2.14 2.22 2.39 2.49 2.64 2.49 2.36 2.22 2.07 1.77 1.49 1.46 1.16 1.03 0.89 0.76 0.72 0.72 0.72 0.78
1.42 1.42 1.35 1.35 1.31 1.12 1.16 1.18 1.17 1.21 1.28 1.28 1.31 1.32 1.18 1.03 0.98 1.05 1.07 1.22 1.47 1.63 1.82 2.06 2.20 2.40 2.49 2.47 2.61 2.57 2.47 2.31 2.12 1.86 1.84 1.77 1.61 1.46 1.20 0.93 0.86 0.76 0.70
1.40 1.32 1.25 1.25 1.24 1.17 1.05 0.96 0.95 1.08 1.22 1.27 1.29 1.33 1.14 1.01 1.00 0.93 1.01 1.08 1.12 1.20 1.33 1.67 1.94 2.06 2.09 2.11 2.38 2.50 2.50 2.40 2.31 2.14 2.17 2.19 2.04 1.80 1.42 1.20 1.09 0.90 0.79
1.28 1.29 1.22 1.20 1.28 1.20 1.09 0.93 0.85 0.84 1.00 1.08 1.10 1.14 1.16 1.16 1.08 1.05 1.03 1.04 1.00 1.01 1.07 1.14 1.29 1.44 1.65 1.84 2.05 2.29 2.52 2.48 2.44 2.37 2.34 2.44 2.29 2.12 1.75 1.42 1.22 0.99 0.89
1.31 1.29 1.27 1.30 1.33 1.31 1.21 1.03 0.95 0.96 1.09 1.14 1.17 1.18 1.22 1.27 1.23 1.05 1.00 1.04 1.07 1.12 1.06 1.09 1.06 1.13 1.24 1.36 1.53 1.78 2.08 2.39 2.61 2.61 2.42 2.47 2.38 2.38 2.29 1.86 1.44 1.19 0.97
1.38 1.35 1.40 1.43 1.40 1.40 1.24 1.02 0.99 1.05 1.25 1.34 1.46 1.46 1.34 1.19 1.15 1.01 1.00 1.09 1.07 1.09 1.03 1.02 0.98 0.95 0.96 1.10 1.23 1.40 1.62 1.92 2.19 2.34 2.29 2.39 2.53 2.79 2.87 2.38 1.80 1.35 1.13